FW3173 Weather Reports


time (UTC)temp
C
wind
direction
speed
KPH
gust
KPH
rain 1hr
cm
rain 24hr
cm
rain mn
cm
humidity
%
barometer
mb
20260505041534 6 233 8.0 22.5 0.00 0.76 0.00 86 1007.6
20260505040031 6 204 9.7 22.5 0.00 0.76 0.00 86 1007.5
20260505034530 6 189 12.9 24.1 0.00 0.81 0.00 85 1007.3
20260505033037 6 218 12.9 22.5 0.00 0.81 0.00 85 1007.0
20260505031524 6 231 11.3 25.7 0.00 0.81 0.00 85 1006.9
20260505030026 6 232 9.7 24.1 0.00 0.81 0.00 85 1006.7
20260505024518 7 227 11.3 20.9 0.00 0.84 0.81 84 1006.5
20260505023017 7 230 11.3 22.5 0.00 0.84 0.81 84 1006.4
20260505021517 7 228 11.3 25.7 0.00 0.84 0.81 83 1006.3
20260505020015 7 225 14.5 27.4 0.00 0.84 0.81 83 1006.2
20260505014515 7 231 12.9 27.4 0.00 0.84 0.81 83 1006.0
20260505013012 7 220 12.9 32.2 0.00 0.84 0.81 82 1005.8
20260505011514 7 200 11.3 27.4 0.00 0.84 0.81 82 1005.7
20260505010009 7 215 12.9 25.7 0.00 0.84 0.81 82 1005.6
20260505004519 7 208 14.5 24.1 0.00 0.86 0.81 82 1005.6
20260505003107 7 199 9.7 19.3 0.00 0.86 0.81 82 1005.5
20260505001504 7 213 8.0 20.9 0.00 0.86 0.81 81 1005.4
20260505000005 7 206 9.7 25.7 0.00 0.89 0.81 80 1005.2
20260504234501 7 187 11.3 24.1 0.00 0.89 0.81 80 1004.8
20260504233058 8 240 9.7 25.7 0.00 0.89 0.81 79 1004.5
20260504231605 8 279 16.1 30.6 0.00 0.89 0.81 78 1004.3
20260504230055 8 234 17.7 33.8 0.00 0.89 0.81 72 1004.4
20260504224604 8 209 14.5 33.8 0.00 1.07 0.81 68 1004.1
20260504223052 8 211 11.3 24.1 0.00 1.07 0.81 72 1004.0
20260504221600 8 216 9.7 24.1 0.00 1.07 0.81 71 1003.7
20260504220053 10 236 12.9 25.7 0.00 1.07 0.81 67 1003.7
20260504214551 10 260 14.5 25.7 0.00 1.37 0.81 68 1003.6
20260504213052 10 218 8.0 20.9 0.00 1.37 0.81 67 1003.6
20260504211544 10 208 8.0 20.9 0.00 1.37 0.81 68 1003.6
20260504210052 10 239 11.3 20.9 0.00 1.37 0.81 70 1003.5
20260504204618 9 279 8.0 16.1 0.00 1.50 0.81 72 1003.2
20260504203037 9 246 6.4 20.9 0.00 1.50 0.81 72 1003.2
20260504201534 9 270 11.3 30.6 0.00 1.50 0.81 71 1003.0
20260504200038 9 239 12.9 27.4 0.00 1.50 0.81 70 1002.9
20260504194536 9 265 16.1 33.8 0.00 1.65 0.81 73 1002.6
20260504193031 8 199 14.5 27.4 0.00 1.65 0.81 75 1002.6
20260504191530 8 213 14.5 33.8 0.00 1.65 0.81 78 1002.4
20260504190030 9 298 22.5 37.0 0.00 1.65 0.81 73 1002.0
20260504184525 9 270 20.9 40.2 0.00 1.78 0.81 73 1001.7
20260504183022 9 229 20.9 45.1 0.00 1.78 0.81 76 1001.6
20260504181518 8 270 22.5 41.8 0.00 1.78 0.81 78 1001.4
20260504180016 8 239 20.9 41.8 0.00 1.78 0.81 79 1001.3
20260504174514 8 275 24.1 49.9 0.00 1.78 0.81 81 1001.0
20260504173009 7 200 22.5 41.8 0.00 1.78 0.81 83 1000.8
20260504171606 7 228 24.1 45.1 0.00 1.78 0.81 87 1000.6
20260504081530 2 270 35.4 57.9 0.05 1.27 0.33 99 983.0